{"data":{"norad_id":63349,"intl_designator":"2025-059F","name":"YUNYAO-1 48","alt_names":[],"object_type":"PAYLOAD","status":"ACTIVE","operator":null,"country":"PRC","launch_date":"2025-03-21","launch_site_code":"JSC","launch_vehicle":null,"mission":null,"orbit_class":"UNKNOWN","rcs_meters":null,"size_class":null,"mass_kg":null,"dimensions":null,"purposes":[],"wikipedia_slug":null,"has_3d_model":false,"image_url":null,"decayed_at":null,"tle_current":{"epoch":"2026-05-25T03:54:22.984128Z","epoch_age_seconds":61297,"freshness":"FRESH","line1":"1 63349U 25059F   26145.16276602  .00002753  00000+0  16804-3 0  9992","line2":"2 63349  97.6103 326.7994 0014106 235.6101 124.3795 15.11091694 64821","mean_motion":15.11091694,"eccentricity":0.0014106,"inclination_deg":97.6103,"raan_deg":326.7994,"arg_perigee_deg":235.6101,"mean_anomaly_deg":124.3795,"bstar":0.00016804,"rev_number":6482,"period_min":95.295342150163,"perigee_km":523.12074342576,"apogee_km":542.61807470702,"semimajor_km":6911.0064090664,"source":"CELESTRAK","updated_at":"2026-05-25T13:38:03.658073Z"}}}